FW8347 Weather Reports


time (UTC)temp
C
wind
direction
speed
KPH
gust
KPH
rain 1hr
cm
rain 24hr
cm
rain mn
cm
humidity
%
barometer
mb
20260504050108 12 225 11.3 19.3 0.00 0.00 0.00 60 1008.1
20260504044545 12 234 9.7 17.7 0.00 0.00 0.00 61 1008.2
20260504043047 11 227 4.8 11.3 0.00 0.00 0.00 62 1008.2
20260504041546 11 228 4.8 12.9 0.00 0.00 0.00 64 1008.3
20260504040048 10 242 1.6 6.4 0.00 0.00 0.00 68 1008.3
20260504034548 10 0 0.0 3.2 0.00 0.00 0.00 71 1008.3
20260504033047 11 0 0.0 4.8 0.00 0.00 0.00 72 1008.2
20260504031603 11 0 0.0 4.8 0.00 0.00 0.00 67 1008.6
20260504030046 11 256 3.2 11.3 0.00 0.00 0.00 68 1008.6
20260504024543 10 238 4.8 11.3 0.00 0.00 0.00 73 1008.6
20260504023041 10 0 0.0 1.6 0.00 0.00 0.00 78 1008.9
20260504021546 10 224 1.6 6.4 0.00 0.00 0.00 79 1008.9
20260504020045 9 218 3.2 8.0 0.00 0.00 0.00 81 1008.9
20260504014545 8 215 3.2 8.0 0.00 0.00 0.00 85 1008.9
20260504013044 8 219 3.2 8.0 0.00 0.00 0.00 87 1009.2
20260504011544 8 283 3.2 11.3 0.00 0.00 0.00 86 1009.4
20260504010047 8 279 9.7 16.1 0.00 0.00 0.00 86 1009.5
20260504004545 9 300 16.1 29.0 0.00 0.00 0.00 83 1009.8
20260504003047 10 288 25.7 37.0 0.00 0.00 0.00 80 1009.8
20260504001559 10 280 24.1 35.4 0.00 0.00 0.00 74 1009.3
20260504000045 11 288 29.0 46.7 0.00 0.00 0.00 72 1009.4
20260503234539 11 279 30.6 48.3 0.00 0.00 0.00 66 1009.0
20260503233045 11 281 20.9 33.8 0.00 0.00 0.00 66 1008.8
20260503231554 9 297 16.1 27.4 0.00 0.00 0.00 70 1008.6
20260503230045 8 73 3.2 6.4 0.00 0.00 0.00 75 1008.5
20260503224547 8 150 0.0 8.0 0.00 0.00 0.00 71 1008.4
20260503223044 7 150 3.2 17.7 0.00 0.00 0.00 73 1008.5
20260503221538 7 98 6.4 12.9 0.00 0.00 0.00 74 1009.0
20260503220049 7 115 6.4 12.9 0.00 0.00 0.00 74 1009.5
20260503214552 7 74 6.4 14.5 0.00 0.00 0.00 71 1009.4
20260503213106 7 99 8.0 12.9 0.00 0.00 0.00 70 1009.0
20260503211618 7 96 9.7 14.5 0.00 0.00 0.00 66 1009.0
20260503210047 7 96 9.7 16.1 0.00 0.00 0.00 67 1009.0
20260503204601 7 90 9.7 14.5 0.00 0.00 0.00 70 1009.4
20260503203045 7 82 9.7 14.5 0.00 0.00 0.00 67 1009.4
20260503201542 7 81 8.0 12.9 0.00 0.00 0.00 70 1009.8
20260503200052 7 92 8.0 12.9 0.00 0.00 0.00 70 1009.9
20260503194546 8 67 6.4 11.3 0.00 0.00 0.00 68 1010.0
20260503193046 8 65 4.8 11.3 0.00 0.00 0.00 66 1010.4
20260503191557 8 15 4.8 8.0 0.00 0.00 0.00 65 1010.8
20260503190046 7 15 3.2 6.4 0.00 0.00 0.00 68 1011.2
20260503184603 7 15 3.2 6.4 0.00 0.00 0.00 67 1011.4
20260503183048 7 15 4.8 8.0 0.00 0.00 0.00 67 1011.5
20260503181547 7 15 6.4 8.0 0.00 0.00 0.00 67 1011.6
20260503180045 9 15 4.8 11.3 0.00 0.00 0.00 67 1011.7
20260503174601 8 62 1.6 6.4 0.00 0.00 0.00 61 1011.9
20260503173040 8 62 3.2 8.0 0.00 0.00 0.00 68 1011.9
20260503171547 8 71 4.8 8.0 0.00 0.00 0.00 66 1011.9
20260503081556 3 236 6.4 14.5 0.00 0.00 0.00 78 1013.6